sat.trackr.live / text

‹ back to catalog

DIRECTV 14

NORAD 40333 · 2014-078B

PAYLOAD ACTIVE UNKNOWN

§ Identity

Operator
Country
US
Launch date
2014-12-06
Launch site
FRGUI
Launch vehicle
Mass (kg)
RCS (m²)
34.13

Purposes: comms

External: N2YO · Heavens-Above · Gunter

§ Orbital elements

Epoch: 2026-05-24T13:35:01.523904Z

Period
1,436.09 min
Inclination
0.0100°
Eccentricity
0.0000248
Mean motion
1.00272307 rev/d
Perigee alt
35,785.4 km
Apogee alt
35,787.5 km
Semi-major
42,164.6 km
B*
0.0000e+0
RAAN
1.8500°
Arg perigee
205.2209°
Mean anomaly
139.6088°
Rev number
4,180

§ Raw data

DIRECTV 141 40333U 14078B   26144.56598986 -.00000130  00000+0  00000+0 0  99992 40333   0.0100   1.8500 0000248 205.2209 139.6088  1.00272307 41804

JSON: /api/v1/satellites/40333 · /tle

For live sub-satellite position, see the globe view (requires WebGL).

§ Visibility from observer

Set your observer location to see the next 7 days of passes ≥ 10°. The values pass through the URL so the page stays shareable.

No JS? Fill the form by hand. The geolocation button needs JavaScript.